Location: Calmejanne
(44.7523°N, 1.9418°E)
Time: 10:40:06
(UTC+00:00)

Helios 1A - Pass Details

Date: 14 May 2026
Orbit: 540 x 559 km, 98.2° (Epoch: 6 June)

Event Time Altitude Azimuth Distance (km) Brightness Sun altitude
Rises 22:16:38 0° 14° (NNE) 2,713 7.2 -23.1°
Reaches altitude 10° 22:18:46 10° 15° (NNE) 1,814 6.1 -23.2°
Enters shadow 22:22:16 68° 37° (NE) 585 2.9 -23.5°
